Millinocket, ME

3:26 AM EDT on July 24, 2017 (GMT -0400)
Millinocket Municipal

Weather History for KMLT - February, 2014

Change the Weather History Date:

Sunday, February 16, 2014

  Actual Average Record
Temperature  
Mean Temperature 17 °F 19 °F  
Max Temperature 22 °F 29 °F 57 °F (1908)
Min Temperature 12 °F 9 °F -23 °F (1914)
Degree Days  
Heating Degree Days 48 46  
Month to date heating degree days 805 778  
Since 1 July heating degree days 5483 5524  
Cooling Degree Days 0 0  
Month to date cooling degree days 0 0  
Year to date cooling degree days 0 0  
Moisture  
Dew Point 11 °F    
Average Humidity 70    
Maximum Humidity 84    
Minimum Humidity 56    
Precipitation  
Precipitation 0.02 in 0.09 in 1.02 in (1953)
Month to date precipitation 1.05 1.06  
Year to date precipitation 4.63 3.99  
Sea Level Pressure  
Sea Level Pressure 29.54 in    
Wind  
Wind Speed 14 mph (NW)    
Max Wind Speed 26 mph    
Max Gust Speed 37 mph    
Visibility 5 miles    
Events Snow    
T = Trace of Precipitation, MM = Missing Value Source: NWS Daily Summary

Daily Weather History Graph

Daily Weather History Graph

Search for Another Location

Airport or City:

Trip Planner

Search our weather history database for the weather conditions in past years. The results will help you decide how hot, cold, wet, or windy it might be!

Date:

Astronomy

Feb. 16, 2014 Rise Set
Actual Time 6:35 AM EST 5:03 PM EST
Civil Twilight 6:04 AM EST 5:33 PM EST
Nautical Twilight 5:30 AM EST 6:08 PM EST
Astronomical Twilight 4:55 AM EST 6:42 PM EST
Moon 7:04 PM EST (2/16) 6:56 AM EST (2/16)
Length of Visible Light 11h 28m
Length of Day
10h 27m
Full, 97% of the Moon is Illuminated
Feb 16
Full
Feb 22
Last Quarter
Mar 1
New
Mar 8
First Quarter
Mar 16
Full

Hourly Weather History & Observations

Time (EST) Temp. Windchill Dew Point Humidity Pressure Visibility Wind Dir Wind Speed Gust Speed Precip Events Conditions
12:10 AM 21.0 °F 9.9 °F 17.1 °F 85% 29.56 in 2.0 mi North 10.4 mph - 0.00 in Snow Light Snow
12:20 AM 21.0 °F 9.9 °F 16.0 °F 81% 29.54 in 1.8 mi North 10.4 mph - 0.00 in Snow Light Snow
12:53 AM 21.0 °F 9.3 °F 16.0 °F 81% 29.56 in 1.2 mi North 11.5 mph - 0.00 in Snow Light Snow
1:19 AM 19.9 °F 7.9 °F 16.0 °F 85% 29.50 in 1.0 mi North 11.5 mph - 0.01 in Snow Light Snow
1:40 AM 19.9 °F 7.3 °F 16.0 °F 85% 29.48 in 1.5 mi North 12.7 mph 18.4 mph 0.01 in Snow Light Snow
1:53 AM 19.9 °F 7.3 °F 15.1 °F 81% 29.51 in 1.5 mi North 12.7 mph - 0.01 in Snow Light Snow
2:20 AM 19.9 °F 7.9 °F 15.1 °F 81% 29.46 in 1.2 mi NNW 11.5 mph - 0.00 in Snow Light Snow
2:44 AM 19.9 °F 5.7 °F 15.1 °F 81% 29.45 in 1.0 mi NNW 16.1 mph 23.0 mph 0.01 in Snow Light Snow
2:53 AM 19.9 °F 6.7 °F 15.1 °F 81% 29.48 in 1.0 mi NNW 13.8 mph 23.0 mph 0.01 in Snow Light Snow
3:31 AM 19.9 °F 7.9 °F 15.1 °F 81% 29.42 in 1.2 mi North 11.5 mph 19.6 mph 0.00 in Snow Light Snow
3:39 AM 19.9 °F 6.2 °F 15.1 °F 81% 29.42 in 1.8 mi North 15.0 mph 20.7 mph 0.00 in Snow Light Snow
3:53 AM 19.9 °F 6.7 °F 14.0 °F 78% 29.45 in 1.5 mi North 13.8 mph 23.0 mph 0.00 in Snow Light Snow
4:48 AM 19.4 °F 5.5 °F 14.0 °F 80% 29.40 in 2.0 mi NNW 15.0 mph 24.2 mph 0.00 in Snow Light Snow
4:53 AM 19.9 °F 6.7 °F 14.0 °F 78% 29.43 in 2.5 mi North 13.8 mph 23.0 mph 0.00 in Snow Light Snow
5:03 AM 19.9 °F 7.3 °F 14.0 °F 78% 29.39 in 3.0 mi North 12.7 mph 21.9 mph 0.00 in Snow Light Snow
5:53 AM 19.9 °F 6.7 °F 14.0 °F 78% 29.42 in 3.0 mi North 13.8 mph - 0.00 in Snow Light Snow
6:53 AM 19.0 °F 6.8 °F 12.9 °F 77% 29.42 in 8.0 mi NNW 11.5 mph - 0.00 in   Overcast
7:53 AM 19.9 °F 7.9 °F 12.0 °F 71% 29.43 in 10.0 mi NW 11.5 mph - 0.00 in   Overcast
8:53 AM 21.0 °F 9.9 °F 12.0 °F 68% 29.44 in 10.0 mi NW 10.4 mph 21.9 mph 0.00 in   Overcast
9:53 AM 21.0 °F 5.4 °F 10.9 °F 65% 29.46 in 8.0 mi NW 20.7 mph 29.9 mph 0.00 in   Overcast
10:53 AM 21.0 °F 6.2 °F 10.9 °F 65% 29.48 in 9.0 mi WNW 18.4 mph 27.6 mph 0.00 in   Overcast
11:53 AM 21.9 °F 7.3 °F 10.9 °F 63% 29.50 in 6.0 mi WNW 18.4 mph 32.2 mph 0.00 in   Overcast
12:44 PM 21.9 °F 9.2 °F 12.9 °F 68% 29.49 in 1.8 mi WNW 13.8 mph 26.5 mph 0.00 in Snow Light Snow
12:47 PM 21.2 °F 8.9 °F 14.0 °F 74% 29.49 in 1.0 mi WNW 12.7 mph 26.5 mph 0.00 in Snow Light Snow
12:53 PM 21.0 °F 10.6 °F 15.1 °F 78% 29.53 in 0.8 mi West 9.2 mph 21.9 mph 0.00 in Snow Light Snow
1:09 PM 21.0 °F 9.3 °F 14.0 °F 74% 29.49 in 1.5 mi WNW 11.5 mph 19.6 mph 0.00 in Snow Light Snow
1:12 PM 21.0 °F 9.3 °F 12.9 °F 71% 29.49 in 3.0 mi West 11.5 mph 19.6 mph 0.00 in Snow Light Snow
1:34 PM 21.0 °F 8.1 °F 10.9 °F 65% 29.50 in 7.0 mi West 13.8 mph 25.3 mph 0.00 in   Overcast
1:53 PM 21.0 °F 7.1 °F 10.0 °F 63% 29.55 in 6.0 mi West 16.1 mph 28.8 mph 0.00 in   Haze
2:53 PM 21.9 °F 8.2 °F 9.0 °F 58% 29.57 in 7.0 mi West 16.1 mph 31.1 mph 0.00 in   Overcast
3:53 PM 19.0 °F 3.6 °F 7.0 °F 59% 29.60 in 5.0 mi WNW 18.4 mph 36.8 mph 0.00 in   Overcast
4:17 PM 19.0 °F 3.6 °F 7.0 °F 59% 29.58 in 10.0 mi West 18.4 mph 25.3 mph 0.00 in   Scattered Clouds
4:53 PM 17.1 °F 2.5 °F 6.1 °F 62% 29.65 in 10.0 mi West 15.0 mph 25.3 mph 0.00 in   Scattered Clouds
5:53 PM 16.0 °F 1.1 °F 5.0 °F 62% 29.68 in 10.0 mi WNW 15.0 mph 26.5 mph N/A   Clear
6:53 PM 16.0 °F 0.6 °F 5.0 °F 62% 29.69 in 10.0 mi WNW 16.1 mph 29.9 mph N/A   Clear
7:53 PM 15.1 °F -0.1 °F 5.0 °F 64% 29.72 in 10.0 mi WNW 15.0 mph 23.0 mph N/A   Clear
8:53 PM 14.0 °F 1.2 °F 5.0 °F 67% 29.75 in 9.0 mi West 10.4 mph 24.2 mph N/A   Clear
9:53 PM 14.0 °F -1.4 °F 3.9 °F 64% 29.76 in 10.0 mi WNW 15.0 mph 25.3 mph N/A   Clear
10:53 PM 12.9 °F 0.7 °F 3.0 °F 65% 29.79 in 10.0 mi West 9.2 mph 17.3 mph N/A   Clear
11:24 PM 12.0 °F -1.3 °F 3.0 °F 67% 29.75 in 10.0 mi West 10.4 mph 20.7 mph N/A   Mostly Cloudy
11:53 PM 12.0 °F -3.4 °F 3.0 °F 67% 29.80 in 10.0 mi West 13.8 mph 23.0 mph N/A   Overcast